Regional Weather Roundup
Issued by NWS Kansas City/Pleasant Hill, MO

Home | Current Version | Previous Version | Text Only | Print | Product List | Glossary On
Versions: 1 2 3 4 5 6 7 8 9 10 11 12 13 14 15 16 17 18 19 20 21 22 23 24 25 26 27 28 29 30 31 32 33 34 35 36 37 38 39 40 41 42 43 44 45 46 47 48 49 50
000
ASUS43 KEAX 060911
RWREAX

WEATHER ROUNDUP FOR EASTERN KANSAS AND NORTHWEST MISSOURI
NATIONAL WEATHER SERVICE KANSAS CITY/PLEASANT HILL MO
400 AM CDT WED MAY 06 2015

KSZ040-057-103>105-MOZ028-029-037-043-061000-
...KANSAS CITY METROPOLITAN AREA...

CITY           SKY/WX    TMP DP  RH WIND       PRES   REMARKS
K.C. INTL      CLOUDY    67  56  67 SE15      29.94F
K.C. DOWNTOWN  MOCLDY    70  55  59 SE12G22   29.94F
LEES SUMMIT    MOCLDY    68  54  60 SE10      29.97F
OLATHE - IXD   CLOUDY    67  56  67 SE15      29.94F
OLATHE - OJC   CLOUDY    68  55  63 S15       29.94F
LAWRENCE       LGT RAIN  65  59  81 SE8       29.92F

$$

MOZ001>008-011>017-020>025-030>033-038>040-044>046-053-054-061000-
...NORTHERN AND CENTRAL MISSOURI...

CITY           SKY/WX    TMP DP  RH WIND       PRES   REMARKS
ST. JOSEPH     PTCLDY    65  59  81 SE12      29.93F
MOSBY          PTSUNNY   64  55  72 SE7       29.97S
WARRENSBURG    CLOUDY    64  54  68 SE7       29.99S
WHITEMAN AFB   CLOUDY    65  55  69 S8        29.99S
CLINTON        CLOUDY    70  55  60 S17       30.00S
SEDALIA        MOCLDY    63  55  75 SE8       30.02F
WARSAW         NOT AVBL
MARSHALL       MOCLDY    64  59  82 E8        30.02S
CHILLICOTHE      N/A     66  58  75 SE6       30.01F
MOBERLY        PTCLDY    63  54  72 SE7       30.06F
KIRKSVILLE     MOCLDY    62  58  86 S9        30.05F

$$

MOZ041-047>049-056>058-063>065-088>090-097-061000-
...EASTERN AND SOUTHERN MISSOURI...

CITY           SKY/WX    TMP DP  RH WIND       PRES   REMARKS
ST. LOUIS INTL PTCLDY    70  56  61 S7        30.11S
SPIRIT OF STL  CLEAR     67  55  65 S3        30.09S
COLUMBIA       CLEAR     62  56  80 SE9       30.06S
JEFFERSON CITY CLEAR     65  54  67 E9        30.06S
MEXICO         CLEAR     63  63 100 SE5       30.08F
HANNIBAL       CLEAR     66  55  68 SE5       30.08S
ROLLA          CLEAR     63  51  65 SE10      30.08R
LEBANON        PTCLDY    66  50  55 CALM      30.07S
OSAGE BEACH    PTCLDY    63  52  67 SE5       30.05S
SPRINGFIELD    CLOUDY    66  52  60 SE15      30.03F
BRANSON        MOCLDY    64  54  68 SE7       30.07S
NEVADA         CLOUDY    70  54  56 SE17      29.98S
JOPLIN         CLOUDY    69  55  60 SE13G21   29.96F
WEST PLAINS    CLEAR     57  49  74 CALM      30.11S

$$

IAZ060-094-KSZ022-034>040-054-083-096-NEZ052-066-093-061000-
...KANSAS...SOUTHEAST NEBRASKA AND IOWA...

CITY           SKY/WX    TMP DP  RH WIND       PRES   REMARKS
TOPEKA         LGT RAIN  64  61  90 SE8       29.90F
MANHATTAN      LGT RAIN  64  62  93 SE15G26   29.83F FOG
EMPORIA        LGT RAIN  62  60  93 SE17G24   29.87F
CHANUTE        LGT RAIN  67  58  72 S17G24    29.92R
WICHITA        LGT RAIN  61  59  93 SE20      29.81F
OMAHA          CLOUDY    64  61  90 SE12      29.91F
LINCOLN        MOCLDY    64  60  87 SE9       29.88F
FALLS CITY     CLOUDY    62  60  93 E9        29.90F
LAMONI         MOCLDY    65  58  78 SE7       29.99F
DES MOINES     MOCLDY    65  61  87 SE6       30.00F FOG

$$



USA.gov is the U.S. government's official web portal to all federal, state and local government web resources and services.